Temperature
20 19 20 19 19 19 19 19 19 19 19 19 19 19 19 19 19 19 18 18 18 18 18 18 18 18 18 18 18 18 18 18 18 17 17 17 17 17 17 17 17 16 17
20 19 20 20 19 19 19 19 19 19 19 19 19 19 19 19 19 18 18 18 18 18 18 18 18 18 18 18 18 18 17 17 17 17 17 17 17 17 17 17 17 17 17
20 19 20 20 20 20 20 19 19 19 19 19 19 19 19 19 18 18 18 18 18 18 18 18 18 18 18 18 17 17 17 17 17 17 17 16 17 17 17 17 17 17 17
20 20 20 20 20 20 20 19 19 19 19 19 19 19 19 18 18 18 18 18 18 18 18 18 18 18 18 17 17 17 17 17 17 17 17 17 16 17 17 17 17 17 17
20 19 20 20 20 20 20 19 20 19 19 19 19 19 19 18 18 18 18 18 18 18 18 18 18 18 18 17 17 17 17 17 17 17 17 16 17 17 17 17 17 17 17
20 20 20 20 20 20 19 19 19 19 19 19 19 19 18 18 18 18 18 18 18 18 18 18 18 18 17 17 17 17 17 17 17 17 16 16 16 17 17 17 17 17 17
20 20 19 20 20 19 19 19 19 19 19 19 19 18 18 18 18 18 18 18 18 18 18 18 17 17 17 17 17 17 17 17 17 17 16 16 17 17 17 17 17 17 17
21 20 19 20 19 19 19 19 19 19 19 19 18 18 18 18 18 18 18 18 18 18 17 17 17 17 17 17 17 17 17 17 17 17 16 16 17 17 17 17 17 17 17
21 20 19 19 19 19 19 19 19 19 18 18 18 18 18 18 18 18 18 18 18 18 17 17 17 17 17 17 17 17 17 17 17 17 17 16 17 17 17 17 17 17 17
20 20 19 18 18 18 18 19 19 18 18 18 18 18 18 18 18 18 17 18 18 18 17 17 17 17 17 17 17 17 17 17 17 17 17 16 17 17 17 17 17 17 17
19 19 19 19 18 18 18 18 18 18 18 18 18 18 18 17 17 17 17 18 18 18 17 17 17 17 17 17 17 17 17 17 17 17 16 17 17 17 17 17 16 16 17
19 19 19 19 18 18 18 17 17 17 18 18 17 17 17 17 17 17 17 18 18 17 17 17 17 17 17 17 17 17 17 17 17 17 16 17 17 17 17 16 16 16 16
19 19 19 18 18 18 18 18 18 17 18 17 17 17 17 17 17 17 17 17 17 17 17 17 17 17 17 17 17 17 17 17 17 17 17 17 17 17 16 16 16 16 16
19 19 18 18 18 18 18 18 18 18 18 17 17 17 17 17 17 17 17 17 17 17 17 17 17 17 17 17 17 17 17 17 17 17 17 17 17 16 16 16 16 16 16
19 19 18 18 18 18 18 18 18 18 18 17 17 17 17 17 17 17 17 17 17 17 17 17 17 17 17 17 17 17 17 17 17 17 17 17 17 17 16 16 16 16 16
19 19 18 18 18 18 18 18 18 18 18 17 17 17 17 17 17 17 17 17 17 17 17 17 17 17 17 17 17 17 17 17 17 16 16 17 17 17 17 17 16 16 16
19 19 19 19 18 18 18 18 18 17 17 17 17 17 17 17 17 17 17 17 17 17 17 17 17 17 17 17 17 17 17 16 16 16 16 16 16 17 17 17 16 16 16
19 19 19 19 18 18 18 18 17 17 17 17 17 17 17 17 17 17 17 17 17 17 17 17 17 17 17 17 17 17 17 17 16 16 16 16 16 16 16 17 17 16 16
19 19 19 19 19 18 18 18 17 17 17 17 17 17 17 17 17 17 17 17 17 17 17 17 17 17 17 17 17 17 17 17 16 17 16 16 16 16 16 17 17 16 16
19 19 19 19 19 18 18 18 17 17 17 17 17 17 17 17 17 17 17 17 17 17 17 17 17 17 17 17 17 17 17 17 17 17 17 17 16 16 16 16 16 16 16
19 19 19 19 19 18 18 17 17 17 17 17 17 17 17 17 17 17 17 17 17 17 17 17 17 17 17 17 17 17 17 17 17 17 17 17 17 16 16 16 16 16 16
18 18 18 18 18 18 18 18 17 17 17 17 17 17 17 17 17 17 17 17 17 17 17 16 17 17 17 17 17 18 18 18 17 18 17 17 17 17 16 16 16 16 16
18 18 18 18 18 18 18 17 17 17 17 17 17 17 17 17 17 17 17 17 17 17 17 17 17 17 17 17 17 18 18 19 18 18 17 17 17 17 17 17 16 16 16
18 18 18 18 18 18 18 17 17 17 17 17 17 17 17 17 17 17 17 17 17 17 17 17 17 17 16 17 17 17 17 18 18 19 18 18 17 17 17 17 17 16 16
19 18 18 18 18 18 17 17 17 17 17 17 17 17 17 17 17 17 17 17 17 17 17 16 16 16 17 17 17 17 17 17 18 18 19 18 18 17 17 17 17 17 16
19 18 18 18 18 18 17 17 17 17 17 17 17 17 17 17 17 17 17 17 17 17 16 16 16 16 16 16 17 17 17 18 18 18 18 18 18 18 17 17 17 17 17
Wind_Speed
15 18 19 16 16 16 16 16 17 17 17 16 16 15 14 13 12 11 11 11 10 10 10 10 10 10 11 12 12 13 13 13 13 14 14 14 14 14 14 14 14 16 17
18 20 20 18 17 17 16 16 16 16 16 16 15 14 13 12 11 11 11 11 10 11 11 11 11 11 11 12 12 13 13 13 14 14 14 14 14 14 13 12 12 16 16
20 21 21 19 18 17 17 16 16 16 16 15 14 13 13 12 11 11 11 11 11 11 12 12 12 12 12 13 13 13 13 13 13 13 12 13 14 13 13 14 16 16 16
21 21 20 20 18 18 17 16 16 16 15 14 14 13 12 11 11 11 11 11 11 12 12 12 13 13 13 13 13 13 12 12 11 10 10 12 13 13 13 15 15 15 15
19 20 21 21 19 18 17 16 16 15 15 14 13 12 12 11 11 11 11 12 12 12 12 13 13 13 13 13 13 12 12 12 9 7 11 12 13 13 13 14 14 14 14
19 20 22 21 19 18 17 16 16 15 14 13 13 12 11 11 11 11 12 12 12 13 13 13 13 13 12 12 12 12 12 9 8 10 11 12 13 13 13 13 13 13 14
19 19 22 20 19 18 17 16 15 14 14 13 12 11 11 11 11 11 12 12 12 12 12 12 12 12 11 11 11 11 9 4 7 10 10 12 13 13 13 13 13 13 14
18 18 21 20 19 18 17 16 15 14 13 12 12 11 11 11 11 11 11 11 12 12 11 11 11 11 11 11 11 10 8 4 9 9 10 12 14 12 12 12 12 13 13
16 16 19 19 18 17 16 15 15 14 13 12 12 11 11 11 11 11 11 11 11 11 11 10 10 10 10 10 10 10 7 1 6 8 10 11 13 12 12 11 11 12 12
15 15 16 17 17 17 16 15 14 13 13 12 11 11 11 11 11 11 12 11 10 10 10 9 9 9 9 9 9 9 7 6 7 8 8 12 12 11 11 10 10 11 11
14 14 15 15 15 15 15 16 15 14 12 12 12 11 11 10 11 11 11 11 10 9 9 9 8 8 9 10 9 9 8 4 7 6 9 14 11 10 10 9 9 9 10
17 15 13 14 14 14 13 15 13 13 13 11 11 11 8 7 7 9 12 10 9 9 9 8 7 8 7 9 10 9 5 5 6 7 10 12 10 9 9 9 8 9 9
17 16 14 14 13 12 10 12 10 9 10 10 10 9 7 7 7 8 9 10 9 9 8 9 8 6 5 4 4 4 4 4 4 6 11 11 9 9 9 9 8 8 9
17 16 15 13 12 11 10 9 9 8 8 9 10 9 8 6 5 6 5 7 7 6 5 5 4 4 3 4 3 4 4 3 4 6 11 11 9 9 8 8 8 8 9
16 15 14 13 13 11 9 8 9 8 8 9 9 9 7 6 5 5 5 4 5 5 6 4 4 4 3 4 3 4 3 3 3 5 10 10 8 8 8 8 8 8 8
16 15 14 14 13 11 9 8 7 8 8 9 9 9 8 7 6 5 6 5 4 4 3 3 4 4 3 3 3 3 3 4 5 4 7 10 9 8 8 8 8 8 8
16 16 15 14 13 12 11 10 8 8 9 8 8 9 9 8 7 6 5 5 5 5 4 4 4 4 4 4 3 3 3 3 5 4 5 7 10 10 9 8 8 8 8
16 16 16 14 15 14 12 10 8 9 8 8 8 9 9 8 7 6 5 5 5 5 5 4 4 4 3 3 3 3 3 4 4 5 5 6 6 8 11 10 8 8 8
16 16 17 15 15 15 13 10 9 8 8 8 8 8 9 9 9 8 6 4 6 5 5 5 5 3 3 3 3 4 3 4 4 5 5 6 5 6 7 11 11 10 9
15 16 17 16 16 14 11 9 8 8 8 8 8 8 9 9 9 8 7 6 7 5 5 4 3 3 3 3 3 3 3 3 4 4 6 6 7 7 8 7 9 11 12
14 16 16 16 15 13 10 10 10 10 8 8 8 9 10 10 10 9 7 6 6 6 5 6 5 6 5 4 4 4 4 5 4 5 5 5 6 6 6 6 7 7 10
15 16 16 16 15 14 11 9 8 8 8 8 8 9 10 10 10 10 8 7 7 5 6 6 6 5 4 5 4 4 4 5 5 6 5 6 6 6 6 8 7 7 7
15 16 15 15 15 15 13 9 8 6 6 8 8 8 9 11 11 9 8 8 6 7 7 7 7 7 5 5 5 4 3 2 4 5 5 6 5 5 6 5 7 7 8
14 14 14 14 14 14 14 12 13 11 11 11 9 8 8 9 10 10 9 8 7 7 6 8 8 6 6 6 5 4 4 3 3 3 5 6 6 6 6 5 6 7 7
12 12 13 13 13 14 14 14 14 12 11 9 9 9 8 8 9 10 9 7 7 7 7 7 6 7 7 7 6 5 5 4 5 4 2 3 5 5 5 5 4 4 5
10 10 11 12 13 13 14 14 15 15 13 12 11 10 9 7 8 9 9 8 8 7 7 8 7 8 7 6 6 5 5 5 5 4 4 4 4 4 3 3 3 3 4
Wind_Direction
154 147 144 144 139 135 132 130 130 131 132 131 129 126 124 121 118 116 114 113 110 109 110 110 110 109 111 114 114 112 111 113 113 110 109 110 110 111 115 120 122 111 113
148 145 146 147 142 138 135 133 131 131 130 129 128 126 123 120 118 116 115 113 111 109 109 109 109 109 111 114 114 114 114 116 116 115 116 114 111 111 112 111 102 109 116
146 145 150 149 145 141 138 136 135 134 131 129 128 126 124 122 120 119 117 115 112 109 109 109 108 109 110 113 114 113 114 116 119 125 132 119 113 111 109 106 106 114 115
147 148 152 148 147 144 141 139 137 136 134 132 130 128 126 123 120 118 117 115 113 111 109 108 108 108 109 111 111 112 114 118 127 150 133 117 116 115 114 113 115 115 115
148 148 146 151 150 147 145 143 140 138 137 135 132 130 127 124 120 117 115 113 112 112 111 109 107 106 107 108 110 110 113 120 144 150 111 111 111 117 116 116 116 116 117
149 151 147 154 151 149 148 146 143 142 140 136 134 132 128 125 122 119 114 113 112 111 110 109 108 107 107 108 110 111 115 134 162 113 111 116 114 118 117 117 117 117 115
154 151 149 155 152 152 151 149 147 145 142 138 135 133 130 127 122 118 116 115 114 113 112 111 110 109 109 110 112 115 119 142 111 109 113 111 111 117 116 117 119 118 117
156 151 147 155 155 156 155 153 150 148 145 141 139 135 131 126 124 121 120 118 117 116 114 111 109 108 110 112 115 118 134 170 120 115 112 109 114 120 118 119 122 121 123
158 152 154 160 160 160 158 156 155 151 147 144 141 136 133 130 128 127 125 122 120 120 118 114 110 109 108 113 118 121 125 200 124 119 115 112 121 124 124 124 125 127 126
163 160 160 165 163 165 163 161 159 154 150 147 145 141 137 137 134 134 138 126 125 124 121 119 115 114 114 117 123 129 148 198 125 126 117 117 127 130 130 131 131 131 131
169 169 169 166 165 169 166 159 164 159 156 156 155 149 159 157 146 153 126 130 133 130 125 122 123 127 134 130 131 144 180 163 120 113 104 116 134 135 135 135 135 136 137
175 176 173 170 167 171 166 161 168 170 164 176 160 161 165 145 145 132 126 139 139 137 136 129 134 160 186 141 144 177 163 136 132 123 114 127 139 141 142 141 143 142 142
177 177 177 174 172 172 168 166 169 170 166 173 162 162 155 155 151 145 148 151 154 163 159 148 176 167 143 115 140 141 121 145 128 123 125 140 148 150 151 151 151 150 147
179 181 179 173 171 175 175 171 170 172 172 171 163 171 164 166 162 149 157 158 166 165 153 166 160 140 128 132 134 125 137 145 129 119 128 145 157 158 157 156 157 156 153
180 180 179 175 173 175 176 180 175 175 176 170 166 173 176 173 171 161 161 169 177 158 169 177 167 150 158 159 153 140 136 122 132 141 134 150 163 167 164 164 166 166 164
181 179 175 178 175 175 178 183 178 179 180 177 176 175 185 182 172 176 176 181 181 178 173 179 167 169 179 161 166 148 164 152 143 159 149 156 171 177 177 178 179 179 178
181 179 176 176 176 177 183 189 186 186 183 187 178 177 187 191 178 188 185 189 184 173 171 191 179 180 183 179 168 165 175 170 147 166 168 164 169 178 185 189 189 190 192
182 180 180 178 179 183 187 191 190 190 186 190 184 184 190 194 189 197 196 195 178 190 192 187 202 190 181 186 174 174 166 164 161 173 184 185 174 173 181 191 197 200 204
184 182 182 181 182 187 188 188 190 187 191 193 193 194 190 197 196 204 204 188 193 200 201 212 185 202 187 189 185 177 183 179 177 183 189 192 185 194 184 176 195 205 212
185 185 185 183 185 187 186 185 186 192 193 198 201 201 197 201 201 207 204 196 208 204 203 216 189 201 216 208 218 170 193 185 201 191 201 191 193 201 204 191 192 201 208
184 186 187 188 187 184 185 188 189 193 195 200 204 199 202 208 203 209 215 194 212 212 211 208 209 195 210 202 215 204 202 207 207 201 209 207 199 204 207 208 216 204 195
187 189 190 191 189 190 190 191 194 191 193 199 204 198 204 210 210 207 212 212 208 208 209 213 216 223 209 207 232 230 217 196 208 204 198 209 215 208 210 210 211 214 229
191 192 193 195 193 193 188 185 184 182 193 198 202 202 206 210 211 217 209 218 212 217 207 210 212 219 223 212 231 249 252 232 182 185 205 207 206 217 222 211 215 211 220
193 191 194 197 197 195 189 190 190 196 201 203 201 198 199 208 211 212 215 214 216 221 209 215 211 222 227 225 213 241 278 321 271 195 194 197 200 212 220 220 216 208 217
189 188 190 195 198 198 196 196 199 204 207 204 200 195 201 204 208 210 211 213 215 222 217 225 208 227 226 233 227 218 222 229 250 267 224 194 192 200 199 210 219 217 209
182 186 188 192 196 197 199 201 203 206 204 201 200 198 202 203 208 208 210 211 215 220 213 218 219 220 235 238 245 236 231 234 235 242 238 220 204 180 190 205 220 213 213
Height
1522 1524 1525 1527 1530 1532 1534 1536 1538 1539 1540 1542 1543 1544 1545 1546 1546 1547 1548 1549 1549 1550 1551 1552 1552 1553 1554 1555 1555 1556 1557 1558 1559 1559 1560 1561 1561 1563 1563 1564 1565 1566 1567
1521 1524 1525 1528 1531 1533 1535 1537 1539 1541 1542 1543 1545 1546 1546 1547 1548 1549 1550 1550 1551 1552 1552 1553 1553 1554 1555 1556 1557 1558 1559 1560 1561 1561 1562 1563 1564 1565 1566 1567 1568 1568 1569
1521 1524 1526 1529 1532 1535 1537 1539 1540 1542 1544 1545 1546 1547 1548 1549 1550 1550 1551 1552 1553 1553 1554 1554 1555 1556 1557 1558 1559 1560 1561 1562 1562 1563 1564 1566 1566 1567 1568 1569 1569 1570 1572
1523 1525 1527 1530 1533 1536 1538 1540 1542 1543 1545 1546 1547 1548 1549 1550 1551 1552 1553 1553 1554 1555 1555 1556 1557 1557 1559 1560 1561 1562 1563 1564 1565 1566 1568 1569 1569 1569 1570 1571 1572 1573 1574
1525 1527 1528 1531 1534 1537 1539 1541 1543 1544 1546 1547 1549 1550 1551 1552 1553 1554 1554 1555 1556 1557 1557 1558 1559 1560 1561 1562 1563 1564 1565 1566 1567 1569 1570 1571 1571 1571 1573 1573 1574 1576 1576
1526 1529 1529 1532 1535 1538 1540 1542 1544 1546 1547 1549 1550 1551 1552 1553 1554 1555 1556 1557 1558 1559 1559 1560 1561 1562 1563 1564 1565 1566 1567 1568 1570 1572 1572 1573 1573 1574 1575 1576 1577 1578 1579
1528 1531 1531 1533 1536 1539 1541 1543 1545 1547 1549 1550 1551 1553 1554 1555 1556 1557 1558 1559 1560 1561 1561 1562 1563 1564 1565 1566 1567 1568 1569 1570 1573 1574 1574 1575 1575 1576 1577 1578 1579 1580 1581
1529 1532 1532 1534 1537 1540 1542 1545 1546 1548 1550 1551 1553 1554 1555 1557 1558 1559 1560 1561 1562 1563 1564 1565 1566 1566 1567 1568 1569 1570 1571 1572 1575 1576 1577 1577 1576 1578 1579 1579 1581 1582 1583
1530 1533 1533 1536 1538 1540 1543 1545 1547 1549 1551 1552 1554 1555 1557 1558 1559 1560 1561 1562 1563 1565 1566 1567 1568 1568 1569 1570 1571 1572 1573 1574 1577 1578 1578 1578 1578 1579 1580 1581 1582 1583 1584
1530 1533 1534 1537 1539 1541 1544 1546 1548 1550 1552 1553 1555 1557 1558 1559 1560 1562 1563 1564 1565 1566 1567 1568 1569 1570 1571 1572 1573 1573 1574 1576 1579 1579 1580 1579 1580 1581 1582 1583 1584 1585 1586
1529 1532 1535 1537 1539 1543 1545 1546 1549 1551 1552 1554 1556 1557 1559 1562 1563 1564 1564 1565 1567 1568 1569 1570 1571 1572 1573 1573 1574 1575 1576 1579 1580 1581 1581 1580 1581 1582 1583 1584 1585 1586 1587
1527 1530 1533 1537 1539 1543 1546 1547 1550 1552 1553 1556 1558 1559 1561 1562 1564 1565 1565 1566 1568 1569 1570 1571 1572 1573 1575 1576 1576 1577 1579 1580 1581 1582 1581 1581 1582 1583 1584 1585 1586 1587 1588
1525 1529 1532 1535 1538 1542 1545 1547 1550 1552 1554 1556 1558 1559 1561 1563 1565 1566 1567 1568 1569 1570 1572 1573 1574 1576 1577 1577 1578 1579 1580 1581 1582 1583 1582 1582 1583 1584 1585 1586 1587 1588 1589
1524 1527 1531 1533 1536 1540 1544 1547 1549 1551 1554 1556 1557 1559 1561 1563 1565 1567 1567 1569 1571 1572 1573 1575 1575 1576 1577 1578 1579 1580 1580 1582 1583 1583 1582 1583 1584 1585 1586 1587 1588 1589 1590
1522 1526 1529 1531 1534 1538 1541 1545 1549 1551 1554 1556 1557 1559 1561 1563 1565 1566 1568 1569 1571 1572 1573 1574 1576 1576 1577 1578 1579 1580 1581 1581 1583 1584 1583 1583 1584 1585 1586 1587 1588 1589 1590
1520 1523 1526 1529 1531 1536 1540 1543 1547 1550 1552 1556 1557 1559 1561 1563 1565 1566 1567 1569 1571 1572 1574 1575 1576 1577 1578 1579 1579 1580 1581 1582 1582 1583 1584 1584 1584 1585 1586 1587 1588 1589 1590
1517 1520 1523 1527 1530 1534 1538 1542 1546 1549 1552 1554 1556 1558 1559 1562 1564 1566 1568 1569 1571 1572 1573 1574 1575 1577 1578 1579 1579 1580 1581 1581 1582 1583 1584 1585 1585 1585 1586 1586 1587 1588 1589
1515 1518 1521 1525 1529 1533 1537 1540 1544 1547 1550 1553 1555 1557 1559 1561 1562 1564 1567 1569 1570 1572 1573 1574 1576 1577 1578 1579 1579 1580 1580 1581 1581 1582 1583 1584 1585 1586 1585 1586 1587 1587 1588
1513 1516 1519 1523 1526 1531 1535 1538 1542 1545 1548 1551 1554 1556 1557 1559 1561 1564 1566 1568 1569 1571 1573 1574 1575 1576 1577 1578 1579 1579 1580 1580 1581 1582 1582 1583 1584 1585 1585 1585 1586 1587 1587
1510 1513 1517 1520 1524 1528 1532 1536 1539 1542 1545 1548 1551 1554 1556 1558 1560 1563 1565 1566 1568 1570 1571 1573 1574 1575 1576 1577 1578 1579 1579 1580 1580 1581 1582 1582 1583 1584 1585 1585 1585 1586 1586
1507 1510 1514 1517 1521 1525 1529 1532 1536 1539 1543 1546 1549 1552 1554 1557 1559 1561 1564 1565 1567 1569 1570 1572 1573 1574 1575 1576 1578 1578 1578 1578 1579 1579 1580 1581 1582 1583 1583 1583 1584 1585 1585
1505 1508 1511 1515 1518 1522 1526 1529 1533 1537 1540 1544 1547 1549 1552 1554 1557 1560 1561 1563 1565 1567 1568 1570 1571 1573 1574 1575 1576 1577 1577 1579 1577 1578 1579 1579 1580 1581 1582 1582 1583 1583 1584
1503 1505 1509 1512 1515 1519 1523 1527 1531 1534 1537 1541 1543 1546 1549 1552 1555 1557 1559 1561 1563 1565 1567 1568 1570 1571 1573 1574 1575 1576 1576 1575 1576 1577 1577 1578 1578 1579 1580 1581 1581 1582 1582
1501 1504 1507 1510 1513 1516 1520 1524 1527 1530 1534 1537 1541 1544 1547 1550 1552 1555 1557 1559 1561 1563 1564 1566 1568 1570 1571 1572 1573 1573 1574 1574 1575 1575 1576 1576 1576 1577 1578 1579 1580 1580 1580
1499 1502 1504 1507 1510 1513 1516 1520 1524 1527 1531 1535 1538 1541 1544 1547 1549 1552 1554 1556 1558 1560 1562 1564 1566 1567 1569 1570 1571 1572 1573 1573 1574 1574 1574 1575 1575 1576 1577 1577 1578 1579 1579
1498 1500 1503 1505 1507 1511 1513 1517 1520 1523 1527 1531 1534 1538 1541 1544 1546 1549 1551 1553 1555 1558 1559 1561 1563 1565 1566 1568 1569 1570 1571 1572 1572 1573 1573 1574 1574 1575 1575 1576 1576 1577 1577